Home   Weather   Norwalk   Past weeks

Flag for USA Past Weather in Norwalk, California, USA — Yesterday and Last 2 Weeks

Now
80 °F

Sunny.


Feels Like: 82 °F
Forecast: 66 / 82 °F
Wind: 3 mph from North

Location: Fullerton Municipal Airport

Current Time: Jul 26, 2017 at 11:47:38 am

Latest Report: Jul 26, 2017 at 10:53 am


Visibility: 10 mi

Pressure: 29.98 "Hg

Humidity: 58%

Dew Point: 64 °F

Location of NorwalkLocation

Past Weather in Norwalk — Graph

°F

Norwalk Temperature Yesterday

Maximum temperature yesterday: 83 °F (at 12:53 pm)
Minimum temperature yesterday: 70 °F (at 12:22 am)
Average temperature yesterday: 75 °F

High & Low Weather Summary for the Past Weeks

 TemperatureHumidityPressure
High88 °F (Jul 13, 4:53 pm)90% (Jul 16, 4:53 am)30.02 "Hg (Jul 16, 4:53 am)
Low66 °F (Jul 14, 4:53 am)34% (Jul 20, 1:53 pm)29.80 "Hg (Jul 23, 4:53 pm)
Average75 °F70%29.91 "Hg
* Reported Jul 11 9:53 am — Jul 26 9:53 am, Norwalk. Weather by CustomWeather, © 2017

Note: Actual official high and low records may vary slightly from our data, if they occured in-between our weather recording intervals... More about our weather records

Advertising

Norwalk Weather History for the Previous 24 Hours

Scroll right to see more
 ConditionsComfort  
Time TempWeatherWind HumidityBarometerVisibility
9:53 am
Wed, Jul 26
77 °FSunny.3 mph64%29.99 "Hg10 mi
8:53 am74 °FSunny.No wind71%30.00 "Hg10 mi
7:53 am70 °FPartly sunny.No wind81%30.00 "Hg9 mi
6:53 am70 °FOvercast.No wind81%29.99 "Hg10 mi
5:53 am70 °FOvercast.No wind81%29.99 "Hg10 mi
4:53 am69 °FOvercast.3 mph84%29.98 "Hg10 mi
4:26 am69 °FPassing clouds.No wind84%29.99 "Hg10 mi
3:53 am69 °FClear.3 mph81%29.98 "Hg10 mi
2:53 am69 °FClear.3 mph79%29.99 "Hg10 mi
1:53 am70 °FClear.No wind76%29.98 "Hg10 mi
12:53 am70 °FClear.3 mph79%29.98 "Hg10 mi
11:53 pm
Tue, Jul 25
71 °FClear.No wind76%29.98 "Hg10 mi
10:53 pm71 °FClear.3 mph76%29.98 "Hg10 mi
9:53 pm71 °FClear.5 mph76%29.97 "Hg10 mi
8:53 pm72 °FClear.6 mph73%29.95 "Hg10 mi
7:53 pm74 °FSunny.6 mph69%29.94 "Hg10 mi
6:53 pm76 °FSunny.9 mph64%29.94 "Hg10 mi
5:53 pm79 °FSunny.9 mph60%29.93 "Hg10 mi
4:53 pm81 °FSunny.9 mph56%29.92 "Hg10 mi
3:53 pm82 °FSunny.10 mph55%29.93 "Hg10 mi
2:53 pm83 °FSunny.9 mph53%29.93 "Hg10 mi
1:53 pm83 °FSunny.No wind53%29.94 "Hg10 mi
12:53 pm83 °FSunny.10 mph53%29.95 "Hg10 mi
11:53 am82 °FPassing clouds.6 mph55%29.96 "Hg10 mi
Weather by CustomWeather, © 2017

See weather overviewHow to use our weather pages